MDT,Max TemperatureF,Mean TemperatureF,Min TemperatureF,Max Dew PointF,MeanDew PointF,Min DewpointF,Max Humidity, Mean Humidity, Min Humidity, Max Sea Level PressureIn, Mean Sea Level PressureIn, Min Sea Level PressureIn, Max VisibilityMiles, Mean VisibilityMiles, Min VisibilityMiles, Max Wind SpeedMPH, Mean Wind SpeedMPH, Max Gust SpeedMPH,PrecipitationIn, CloudCover, Events, WindDirDegrees
2011-10-1,83,70,56,44,40,35,55,39,22,30.00,29.87,29.80,10,10,10,20,10,25,0.00,1,,205
2011-10-2,80,66,51,45,41,36,66,45,24,30.06,29.91,29.82,10,10,10,14,4,17,0.00,1,,293
2011-10-3,83,66,48,60,45,36,80,51,21,29.98,29.85,29.70,10,9,2,41,8,53,0.12,2,Rain-Thunderstorm,187
2011-10-4,74,63,52,52,48,45,93,67,41,29.87,29.72,29.61,10,10,3,25,9,36,0.10,4,Rain,227
2011-10-5,56,48,40,49,43,37,92,82,71,29.62,29.53,29.45,10,8,2,24,9,31,0.58,7,Rain,226
2011-10-6,42,39,36,37,35,33,92,84,76,29.84,29.71,29.57,10,10,9,28,17,40,0.04,8,Rain,254
2011-10-7,48,44,39,43,39,36,89,80,71,30.08,29.96,29.84,10,10,8,22,14,33,0.04,8,Rain,252
2011-10-8,57,47,37,41,39,36,89,70,50,30.23,30.17,30.08,10,10,9,14,7,20,0.05,5,Rain,257
2011-10-9,61,46,31,39,35,30,100,70,39,30.19,30.11,29.95,10,8,0,8,2,13,0.00,1,Fog,211
2011-10-10,63,54,44,46,40,36,86,65,43,29.97,29.87,29.77,10,10,6,20,10,29,0.12,3,Rain,206
2011-10-11,63,53,42,47,43,36,93,70,47,30.09,29.92,29.83,10,10,9,23,10,33,0.12,4,Rain,243
2011-10-12,60,49,38,39,36,28,85,58,31,30.24,30.19,30.14,10,10,10,14,6,20,0.00,1,,242
2011-10-13,68,52,36,41,37,29,100,62,24,30.15,30.07,29.98,10,10,9,13,3,16,0.00,1,,231
2011-10-14,73,55,36,48,41,35,92,63,33,30.07,29.98,29.92,10,10,9,9,2,12,0.00,0,,260
2011-10-15,69,57,44,50,44,39,92,66,40,30.00,29.93,29.88,10,10,10,14,5,18,0.00,0,,243
2011-10-16,67,55,42,49,44,40,93,68,42,30.11,30.00,29.94,10,9,2,24,9,35,0.20,2,Rain,259
2011-10-17,57,46,34,45,39,34,89,68,46,30.39,30.32,30.10,10,10,9,20,8,29,0.00,3,,265
2011-10-18,64,47,29,37,34,28,96,66,36,30.46,30.34,30.17,10,10,8,13,5,17,0.00,0,,66
2011-10-19,62,48,34,38,35,32,89,63,36,30.15,30.03,29.94,10,10,9,17,6,21,0.00,1,,21
2011-10-20,68,50,32,42,37,32,96,65,34,30.13,30.08,30.04,10,10,5,8,2,12,0.00,0,,225
2011-10-21,65,50,35,43,39,36,92,66,40,30.22,30.15,30.07,10,10,10,14,5,17,0.00,0,,254
2011-10-22,64,52,39,40,38,33,79,59,39,30.29,30.24,30.20,10,10,10,17,9,22,0.00,0,Rain,246
2011-10-23,71,55,39,41,37,34,79,54,28,30.24,30.12,29.97,10,10,10,12,4,15,0.00,0,,235
2011-10-24,59,49,38,42,35,24,82,63,43,30.08,29.98,29.88,10,10,10,23,12,31,T,2,Rain,258
2011-10-25,45,37,29,28,25,23,78,60,41,30.29,30.21,30.09,10,10,10,21,7,26,0.00,1,,259
2011-10-26,45,34,22,26,22,18,88,61,33,30.40,30.32,30.27,10,10,10,12,4,16,0.00,2,,241
2011-10-27,53,39,24,21,19,17,75,51,26,30.27,30.22,30.16,10,10,10,15,7,18,0.00,1,,235
2011-10-28,59,40,21,27,19,14,88,54,19,30.38,30.25,30.11,10,10,10,16,4,21,0.00,0,,160
2011-10-29,58,47,36,37,27,12,70,48,26,30.22,30.15,30.08,10,10,7,25,13,36,0.00,1,Rain,241
2011-10-30,64,50,35,38,34,32,89,60,31,30.30,30.21,30.12,10,10,10,12,3,14,0.00,0,,252
2011-10-31,59,49,38,44,36,27,79,66,53,30.10,30.06,30.03,10,10,10,22,11,31,0.01,3,Rain,246